This demonstration page uses our WeatherBlox Daily Observations layout. Learn more.

Left ArrowRight Arrow

Hourly Observations for November 30, 2015

Temp ( °F °C ) Dew Point ( °F °C ) Humidity (%) Winds ( mph kmh ) Pressure ( in mb ) Visibility ( mi km ) Precip ( " mm )
12:53 am 00:53 Cloudy with Mist and Fog 30 -1.1 28 -2.2 92 92 SE 3 6 30.16 1022 3 5 0.00 0.00
1:11 am 01:11 Cloudy with Mist and Fog 30 -1.1 28 -2.2 92 92 Calm 30.21 1023 3 4 0.00 0.00
1:27 am 01:27 Cloudy with Mist and Fog 30 -1.1 28 -2.2 92 92 SE 3 6 30.21 1023 3 5 0.00 0.00
1:48 am 01:48 Cloudy with Mist and Fog 30 -1 28 -2 93 93 ESE 3 6 30.18 1022 3 5 0.00 0.00
1:53 am 01:53 Cloudy with Mist and Fog 30 -1.1 28 -2.2 92 92 Calm 30.13 1020 4 6 0.00 0.00
2:10 am 02:10 Cloudy with Mist and Fog 30 -1 28 -2 93 93 ENE 3 6 30.18 1022 3 4 0.00 0.00
2:17 am 02:17 Cloudy with Mist and Fog 30 -1.1 28 -2.2 92 92 E 5 7 30.18 1022 3 5 0.00 0.00
2:30 am 02:30 Cloudy with Mist and Fog 30 -1 28 -2 93 93 Calm 30.18 1022 3 5 0.00 0.00
2:45 am 02:45 Cloudy with Mist and Fog 30 -1.1 28 -2.2 92 92 Calm 30.18 1022 3 5 0.00 0.00
2:53 am 02:53 Cloudy with Mist and Fog 30 -1.1 28 -2.2 92 92 ENE 3 6 30.11 1020 3 5 0.00 0.00
3:00 am 03:00 Cloudy with Mist and Fog 30 -1 28 -2 93 93 ENE 5 7 30.12 1020 3 4 0.00 0.00
3:15 am 03:15 Cloudy with Mist and Fog 30 -1.1 28 -2.2 92 92 ENE 7 11 30.12 1020 3 5 0.00 0.00
3:35 am 03:35 Cloudy with Mist and Fog 30 -1 28 -2 93 93 Calm 30.12 1020 4 6 0.00 0.00
3:53 am 03:53 Cloudy 30 -1.1 28 -2.2 92 92 ENE 3 6 30.07 1018 7 11 0.00 0.00
4:14 am 04:14 Cloudy with Light Snow 30 -1 28 -2 93 93 Calm 30.09 1019 4 6 0.00 0.00
4:21 am 04:21 Cloudy with Light Snow 30 -1.1 28 -2.2 92 92 Calm 30.12 1020 3 4 0.00 0.03
4:30 am 04:30 Cloudy with Light Snow 30 -1.1 28 -2.2 92 92 Calm 30.09 1019 2 3 0.00 0.03
4:43 am 04:43 Cloudy with Light Snow 30 -1.1 27 -2.8 88 88 NE 5 7 30.09 1019 1 2 0.01 0.25
4:53 am 04:53 Cloudy with Light Snow 30 -1.1 28 -2.2 92 92 Calm 30.06 1018 2 3 0.01 0.25
5:01 am 05:01 Cloudy with Light Snow 30 -1.1 29 -1.7 96 96 Calm 30.09 1019 3 4 0.00 0.03
5:22 am 05:22 Cloudy with Light Snow 30 -1 27 -3 86 86 ENE 3 6 30.09 1019 2 2 0.00 0.00
5:53 am 05:53 Cloudy with Light Snow 30 -1.1 28 -2.2 92 92 Calm 30.06 1018 2 2 0.02 0.51
6:24 am 06:24 Cloudy with Light Snow 30 -1 28 -2 93 93 Calm 30.09 1019 2 3 0.00 0.00
6:39 am 06:39 Cloudy with Light Snow 30 -1.1 28 -2.2 92 92 Calm 30.09 1019 3 4 0.00 0.03
6:48 am 06:48 Cloudy with Light Snow 28 -2 27 -3 93 93 Calm 30.09 1019 3 5 0.00 0.00
6:53 am 06:53 Cloudy with Light Snow 29 -1.7 27 -2.8 92 92 Calm 30.05 1018 4 6 0.00 0.03
7:43 am 07:43 Cloudy with Light Snow 29 -1.7 27 -2.8 92 92 Calm 30.09 1019 2 3 0.00 0.03
7:53 am 07:53 Cloudy with Light Snow 29 -1.7 28 -2.2 96 96 Calm 30.04 1017 1 2 0.01 0.25
8:12 am 08:12 Cloudy with Light Snow 28 -2 27 -3 93 93 Calm 30.09 1019 3 5 0.00 0.00
8:34 am 08:34 Cloudy with Light Snow 28 -2 28 -2 100 100 Calm 30.09 1019 4 6 0.00 0.00
8:53 am 08:53 Cloudy with Light Snow 29 -1.7 27 -2.8 92 92 WNW 3 6 30.03 1017 3 4 0.00 0.03
9:07 am 09:07 Cloudy with Light Snow 29 -1.7 28 -2.2 96 96 Calm 30.09 1019 2 2 0.00 0.03
9:16 am 09:16 Cloudy with Light Snow 30 -1.1 28 -2.2 92 92 Calm 30.06 1018 1 2 0.00 0.03
9:36 am 09:36 Cloudy with Light Snow 30 -1 27 -3 86 86 Calm 30.06 1018 1 2 0.00 0.00
9:53 am 09:53 Cloudy with Light Snow 30 -1.1 27 -2.8 88 88 Calm 30.02 1017 2 3 0.00 0.03
10:11 am 10:11 Cloudy with Light Snow 30 -1.1 27 -2.8 88 88 WNW 3 6 30.06 1018 1 2 0.01 0.25
10:27 am 10:27 Cloudy with Light Snow 30 -1.1 27 -2.8 88 88 Calm 30.06 1018 2 3 0.01 0.25
10:40 am 10:40 Cloudy with Light Snow 30 -1.1 28 -2.2 92 92 Calm 30.03 1017 2 3 0.01 0.25
10:53 am 10:53 Cloudy with Light Snow 30 -1.1 28 -2.2 92 92 WNW 3 6 30.00 1016 3 4 0.01 0.25
11:00 am 11:00 Cloudy with Light Snow 30 -1 28 -2 93 93 W 3 6 30.03 1017 3 5 0.00 0.00
11:45 am 11:45 Cloudy with Light Snow 31 -0.6 28 -2.2 89 89 WNW 5 7 30.00 1016 6 10 0.00 0.03
11:53 am 11:53 Cloudy with Light Snow 31 -0.6 28 -2.2 89 89 WNW 6 9 29.96 1015 6 10 0.00 0.03
12:43 pm 12:43 Cloudy with Light Snow 31 -0.6 28 -2.2 89 89 W 7 11 29.97 1015 9 14 0.00 0.03
12:51 pm 12:51 Cloudy 32 0 28 -2 87 87 W 9 15 29.97 1015 9 14 0.00 0.03
12:53 pm 12:53 Cloudy 32 0 28 -2.2 85 85 W 7 11 29.92 1013 9 14 0.00 0.03
1:21 pm 13:21 Cloudy 31 -0.6 27 -2.8 85 85 NW 10 17 29.94 1014 10 16 0.00 0.00
1:38 pm 13:38 Cloudy 30 -1 27 -3 86 86 WNW 8 13 29.94 1014 10 16 0.00 0.00
1:53 pm 13:53 Cloudy 31 -0.6 27 -2.8 85 85 WNW 8 13 29.92 1013 10 16 0.00 0.00
2:27 pm 14:27 Cloudy 31 -0.6 26 -3.3 82 82 W 13 20 29.94 1014 9 14 0.00 0.00
2:37 pm 14:37 Cloudy with Light Snow 31 -0.6 26 -3.3 82 82 WNW 13 20 29.94 1014 2 3 0.00 0.03
2:53 pm 14:53 Cloudy with Light Snow 31 -0.6 27 -2.8 85 85 WNW 12 19 29.90 1013 3 5 0.01 0.25
3:23 pm 15:23 Cloudy with Light Snow 30 -1.1 27 -2.8 88 88 WNW 10 17 29.91 1013 1 2 0.00 0.03
3:30 pm 15:30 Cloudy with Light Snow 30 -1 27 -3 86 86 W 10 17 29.91 1013 2 3 0.00 0.00
3:37 pm 15:37 Cloudy with Light Snow 30 -1.1 26 -3.3 85 85 WNW 10 17 29.91 1013 3 4 0.00 0.03
3:45 pm 15:45 Cloudy with Light Snow 30 -1.1 26 -3.3 85 85 WNW 9 15 29.91 1013 4 6 0.00 0.03
3:53 pm 15:53 Cloudy with Light Snow 30 -1.1 26 -3.3 85 85 W 9 15 29.90 1012 4 6 0.00 0.03
4:30 pm 16:30 Cloudy with Light Snow 30 -1 27 -3 86 86 W 8 13 29.91 1013 3 5 0.00 0.00
4:53 pm 16:53 Cloudy with Light Snow 30 -1.1 26 -3.3 85 85 WNW 10 17 29.89 1012 6 10 0.00 0.03
5:53 pm 17:53 Mostly Clear 27 -2.8 23 -5 85 85 W 9 15 29.91 1013 10 16 0.00 0.03
6:53 pm 18:53 Mostly Clear 25 -3.9 22 -5.6 88 88 W 8 13 29.91 1013 10 16 0.00 0.00
7:53 pm 19:53 Mostly Clear 21 -6.1 18 -7.8 88 88 W 8 13 29.91 1013 10 16 0.00 0.00
8:53 pm 20:53 Clear 23 -5 19 -7.2 85 85 W 10 17 29.91 1013 10 16 0.00 0.00
9:53 pm 21:53 Mostly Clear 23 -5 19 -7.2 85 85 W 8 13 29.89 1012 10 16 0.00 0.00
10:53 pm 22:53 Clear 21 -6.1 18 -7.8 88 88 WSW 7 11 29.88 1012 10 16 0.00 0.00
11:53 pm 23:53 Mostly Clear 22 -5.6 19 -7.2 89 89 WSW 7 11 29.87 1012 10 16 0.00 0.00

Powered by AerisWeather